TimeCST,TemperatureF,Dew PointF,Humidity,Sea Level PressureIn,VisibilityMPH,Wind Direction,Wind SpeedMPH,Gust SpeedMPH,PrecipitationIn,Events,Conditions,WindDirDegrees,DateUTC
12:52 AM,16.0,10.9,81,30.13,-9999.0,SSE,3.5,-,N/A,,Unknown,160,2012-12-30 06:52:00
1:52 AM,14.0,10.0,84,30.12,-9999.0,Calm,Calm,-,N/A,,Unknown,0,2012-12-30 07:52:00
2:52 AM,12.9,9.0,84,30.12,-9999.0,SE,5.8,-,N/A,,Unknown,140,2012-12-30 08:52:00
3:52 AM,10.0,6.1,84,30.09,-9999.0,SSE,6.9,-,N/A,,Unknown,160,2012-12-30 09:52:00
4:52 AM,8.1,3.9,83,30.07,-9999.0,SE,5.8,-,N/A,,Unknown,130,2012-12-30 10:52:00
5:52 AM,7.0,1.9,80,30.06,-9999.0,SE,6.9,-,N/A,,Unknown,130,2012-12-30 11:52:00
6:52 AM,3.9,-0.0,84,30.07,-9999.0,SSE,6.9,-,N/A,,Unknown,150,2012-12-30 12:52:00
7:52 AM,5.0,-0.0,80,30.03,-9999.0,ESE,5.8,-,N/A,,Unknown,120,2012-12-30 13:52:00
8:52 AM,6.1,1.0,80,30.02,-9999.0,SE,4.6,-,N/A,,Unknown,140,2012-12-30 14:52:00
9:52 AM,10.9,6.1,81,29.98,-9999.0,SE,5.8,-,N/A,,Unknown,140,2012-12-30 15:52:00
10:52 AM,16.0,9.0,74,29.97,-9999.0,West,3.5,-,N/A,,Unknown,260,2012-12-30 16:52:00
11:52 AM,16.0,9.0,74,29.96,-9999.0,WNW,10.4,-,N/A,,Unknown,290,2012-12-30 17:52:00
12:52 PM,16.0,9.0,74,29.96,-9999.0,WNW,13.8,-,N/A,,Unknown,290,2012-12-30 18:52:00
1:52 PM,16.0,10.0,77,29.96,-9999.0,WNW,12.7,-,N/A,,Unknown,300,2012-12-30 19:52:00
2:52 PM,19.0,12.0,74,30.00,-9999.0,WNW,16.1,-,N/A,,Unknown,290,2012-12-30 20:52:00
3:52 PM,21.9,12.9,68,30.04,-9999.0,NW,18.4,-,N/A,,Unknown,310,2012-12-30 21:52:00
4:52 PM,21.9,12.9,68,30.08,-9999.0,NW,16.1,-,N/A,,Unknown,320,2012-12-30 22:52:00
5:52 PM,21.0,14.0,74,30.10,-9999.0,NW,15.0,-,N/A,,Unknown,320,2012-12-30 23:52:00
6:52 PM,21.0,14.0,74,30.13,-9999.0,NNW,10.4,-,N/A,,Unknown,340,2012-12-31 00:52:00
7:52 PM,19.9,14.0,78,30.15,-9999.0,NNW,12.7,-,N/A,,Unknown,330,2012-12-31 01:52:00
8:52 PM,21.9,15.1,75,30.14,-9999.0,North,16.1,-,N/A,,Unknown,350,2012-12-31 02:52:00
9:52 PM,21.0,16.0,81,30.17,-9999.0,NNW,8.1,18.4,N/A,,Unknown,330,2012-12-31 03:52:00
10:52 PM,18.0,14.0,84,30.20,-9999.0,NW,5.8,-,N/A,,Unknown,310,2012-12-31 04:52:00
11:52 PM,19.9,15.1,81,30.21,-9999.0,NNW,11.5,-,N/A,,Unknown,340,2012-12-31 05:52:00